Lamar, CO

5:09 PM MST on December 06, 2019 (GMT -0700)
Lamar Municipal

Weather History for KLAA - November, 2019

Change the Weather History Date:

Saturday, November 16, 2019

  Actual Average Record
Temperature  
Mean Temperature 51 °F 40 °F  
Max Temperature 70 °F 56 °F 82 °F (1941)
Min Temperature 31 °F 23 °F -2 °F (1955)
Degree Days  
Heating Degree Days 14 25  
Month to date heating degree days 405 351  
Since 1 July heating degree days 975 818  
Cooling Degree Days 0 0  
Month to date cooling degree days 0 0  
Year to date cooling degree days 1406 1121  
Growing Degree Days 1 (Base 50)    
Moisture  
Dew Point 29 °F    
Average Humidity 50    
Maximum Humidity 81    
Minimum Humidity 19    
Precipitation  
Precipitation 0.00 in 0.01 in 0.47 in (1991)
Month to date precipitation 0.01 0.27  
Year to date precipitation 7.96 14.69  
Sea Level Pressure  
Sea Level Pressure 29.97 in    
Wind  
Wind Speed 8 mph (NW)    
Max Wind Speed 20 mph    
Max Gust Speed 28 mph    
Visibility 10 miles    
Events      
T = Trace of Precipitation, MM = Missing Value Source: NWS Daily Summary

Daily Weather History Graph

Daily Weather History Graph

Search for Another Location

Airport or City:

Astronomy

Nov. 16, 2019 Rise Set
Actual Time 6:32 AM MST 4:38 PM MST
Civil Twilight 6:04 AM MST 5:06 PM MST
Nautical Twilight 5:32 AM MST 5:38 PM MST
Astronomical Twilight 5:01 AM MST 6:09 PM MST
Moon 8:14 PM MST (11/16) 10:26 AM MST (11/16)
Length of Visible Light 11h 02m
Length of Day
10h 05m
Waning Gibbous, 82% of the Moon is Illuminated
Nov 16
Waning Gibbous
Nov 19
Last Quarter
Nov 26
New
Dec 3
First Quarter
Dec 11
Full

Hourly Weather History & Observations

Time (MST) Temp. Windchill Dew Point Humidity Pressure Visibility Wind Dir Wind Speed Gust Speed Precip Events Conditions
12:53 AM 33.1 °F 26.1 °F 27.0 °F 78% 29.94 in 10.0 mi SW 8.1 mph - N/A   Clear
1:53 AM 34.0 °F 29.8 °F 28.0 °F 79% 29.94 in 10.0 mi SW 4.6 mph - N/A   Clear
2:53 AM 36.0 °F 31.1 °F 28.9 °F 76% 29.94 in 10.0 mi West 5.8 mph - N/A   Clear
3:53 AM 35.1 °F 28.6 °F 28.0 °F 76% 29.93 in 10.0 mi WSW 8.1 mph - N/A   Clear
4:53 AM 33.1 °F 27.7 °F 28.0 °F 82% 29.94 in 10.0 mi WSW 5.8 mph - N/A   Clear
5:53 AM 37.0 °F 28.5 °F 30.0 °F 76% 29.96 in 10.0 mi West 13.8 mph - N/A   Clear
6:53 AM 36.0 °F 30.3 °F 30.0 °F 79% 29.97 in 10.0 mi WSW 6.9 mph - N/A   Clear
7:53 AM 39.9 °F 33.9 °F 30.0 °F 68% 29.98 in 10.0 mi West 9.2 mph - N/A   Clear
8:53 AM 46.0 °F 41.0 °F 30.0 °F 54% 29.98 in 10.0 mi West 10.4 mph - N/A   Clear
9:53 AM 51.1 °F - 28.9 °F 43% 29.96 in 10.0 mi WNW 8.1 mph - N/A   Clear
10:53 AM 55.9 °F - 28.9 °F 36% 29.95 in 10.0 mi West 8.1 mph - N/A   Clear
11:53 AM 63.0 °F - 28.9 °F 28% 29.90 in 10.0 mi West 6.9 mph - N/A   Clear
12:53 PM 66.9 °F - 28.0 °F 23% 29.86 in 10.0 mi WNW 4.6 mph - N/A   Clear
1:53 PM 69.1 °F - 25.0 °F 19% 29.85 in 10.0 mi NNE 5.8 mph - N/A   Clear
2:53 PM 68.0 °F - 24.1 °F 19% 29.85 in 10.0 mi ENE 5.8 mph - N/A   Clear
3:53 PM 63.0 °F - 26.1 °F 25% 29.87 in 10.0 mi ENE 6.9 mph - N/A   Clear
4:53 PM 55.9 °F - 26.1 °F 32% 29.93 in 10.0 mi NE 8.1 mph - N/A   Clear
5:53 PM 54.0 °F - 26.1 °F 34% 29.96 in 10.0 mi ENE 5.8 mph - N/A   Clear
6:53 PM 51.1 °F - 28.0 °F 41% 30.01 in 10.0 mi NE 9.2 mph - N/A   Clear
7:53 PM 48.9 °F - 28.9 °F 46% 30.08 in 10.0 mi NNE 9.2 mph - N/A   Clear
8:53 PM 48.9 °F - 30.9 °F 50% 30.11 in 10.0 mi NNE 13.8 mph - N/A   Mostly Cloudy
9:53 PM 44.1 °F 41.5 °F 30.9 °F 60% 30.13 in 10.0 mi North 4.6 mph - N/A   Mostly Cloudy
10:53 PM 45.0 °F 38.5 °F 37.0 °F 74% 30.14 in 10.0 mi North 13.8 mph 27.6 mph N/A   Mostly Cloudy
11:53 PM 44.1 °F 38.6 °F 37.0 °F 76% 30.14 in 10.0 mi NNW 10.4 mph - N/A   Overcast